RH
84 87 98 95 94 97 91 85 81 90 95 99 91 83 80 89 100 100 100 100 100 99 97 86 83 67 51 44 45 48 43 26 14 17 13 16 50 92
99 100 99 98 88 85 88 84 84 87 98 94 84 84 90 98 100 99 99 100 100 93 93 88 68 58 57 55 52 47 33 13 9 11 13 20 38 26
97 98 98 99 100 94 87 88 94 87 86 100 84 94 99 100 98 100 100 100 100 95 89 80 72 65 60 56 54 42 16 9 10 12 14 14 13 15
89 91 94 99 99 100 94 87 90 92 90 81 99 98 100 100 100 100 100 99 97 91 86 80 73 68 65 62 48 19 11 12 13 13 13 12 13 16
95 93 94 100 100 100 93 92 98 99 100 91 98 100 100 99 99 100 97 96 90 88 84 79 76 72 67 38 15 14 16 14 14 13 14 14 14 14
97 94 98 99 100 99 98 93 100 100 100 99 100 100 100 100 100 99 94 91 88 81 76 75 72 54 22 15 16 15 15 14 14 14 14 15 14 14
97 100 99 99 99 98 98 98 100 100 100 100 100 99 96 96 96 98 99 99 80 74 70 62 33 16 16 16 15 14 14 14 15 16 15 15 16 20
100 100 99 89 100 100 100 99 100 100 100 98 98 100 100 100 100 100 98 80 73 60 33 19 16 16 18 16 16 16 17 17 17 18 18 18 22 26
100 92 95 98 95 100 100 100 100 100 100 99 99 99 98 94 98 87 74 64 48 19 17 17 16 17 19 20 18 15 15 16 18 21 20 26 26 23
93 94 99 98 97 99 100 100 99 100 100 100 100 92 91 80 74 64 40 24 20 18 21 24 23 19 18 18 17 16 15 16 18 22 26 28 28 27
99 100 100 100 100 100 100 99 100 99 94 78 60 58 41 32 22 19 21 27 27 25 26 28 26 30 32 34 28 21 26 28 28 29 31 31 30 31
98 96 84 88 64 53 59 61 64 49 36 25 18 18 18 22 40 46 33 27 32 33 32 37 39 42 44 42 31 42 41 43 43 44 46 42 35 32
80 50 25 20 20 22 21 20 18 20 21 24 33 56 57 42 30 33 34 36 38 39 42 45 46 48 49 48 47 47 46 46 48 47 47 43 36 38
38 24 22 22 22 22 24 32 45 46 48 57 52 43 38 37 36 38 39 41 44 46 50 52 54 55 55 53 48 43 41 43 49 45 46 45 40 43
21 22 23 25 37 51 50 43 47 54 54 44 39 40 37 38 39 42 44 46 48 53 58 61 63 62 56 52 53 45 50 50 48 52 52 44 43 46
24 27 36 53 56 44 51 68 67 55 42 40 41 39 40 42 46 48 48 46 44 50 66 73 74 75 76 72 69 55 54 60 50 51 50 52 53 52
34 59 63 52 51 63 63 57 48 40 39 40 42 44 47 49 50 50 48 46 43 43 52 71 73 82 88 88 84 76 72 62 56 54 60 56 50 49
60 64 63 56 60 67 63 50 36 34 36 38 42 46 46 44 42 41 42 42 40 41 45 52 63 92 93 81 80 79 68 63 59 64 63 66 52 50
54 73 90 90 84 67 40 34 35 36 37 38 40 42 44 45 46 46 48 49 48 50 51 61 82 97 96 92 84 89 80 68 70 66 70 69 73 61
70 68 66 48 38 38 37 36 38 39 39 41 44 47 52 54 52 53 55 56 57 58 60 74 96 97 100 99 100 86 80 72 69 73 72 76 71 63
39 40 40 41 42 42 42 42 42 43 44 43 44 50 66 76 71 66 64 67 80 81 87 92 99 100 96 100 99 78 66 66 74 82 80 88 79 74
40 41 41 42 43 44 44 44 44 47 49 53 57 65 92 96 91 83 92 97 97 99 96 98 98 98 97 97 93 80 74 64 62 69 73 80 91 97
47 49 48 42 44 68 90 92 89 88 88 85 77 68 65 70 72 77 86 97 99 97 96 91 88 93 90 85 88 81 82 70 70 68 57 69 72 76
Wind_Speed
33 31 31 32 34 31 31 29 27 24 23 23 22 28 29 33 31 31 32 28 22 22 18 23 24 22 21 22 22 23 23 22 22 23 21 18 15 14
28 31 32 33 32 35 31 29 31 28 27 26 25 25 26 31 31 28 27 24 22 22 22 21 22 23 24 23 22 22 22 20 20 21 21 18 17 19
28 28 30 30 31 32 31 30 29 28 27 26 26 30 28 25 28 28 27 21 22 23 21 22 24 23 22 22 22 22 21 20 20 20 19 19 20 20
29 27 29 27 29 28 28 34 27 25 22 24 30 23 25 22 24 27 24 24 22 20 21 21 21 21 21 21 21 21 20 19 19 19 19 20 20 20
25 25 29 27 27 30 28 30 27 22 27 22 25 26 25 23 24 25 24 20 20 20 20 20 21 21 19 20 19 19 19 19 19 18 18 18 20 21
22 23 26 26 29 24 20 21 23 24 24 26 25 26 25 23 22 22 19 20 20 19 19 19 18 17 17 17 18 18 18 18 18 17 19 20 22 22
17 18 17 19 21 18 17 25 23 18 27 25 19 22 22 19 19 19 21 18 18 18 16 16 17 16 16 16 16 17 17 17 17 18 21 22 23 23
10 10 10 12 15 17 12 14 18 17 27 19 16 17 13 14 16 19 17 17 15 14 14 15 14 13 13 14 15 16 17 18 19 21 24 24 22 21
10 3 6 13 10 11 9 12 13 10 15 12 13 13 10 9 12 16 16 14 12 9 7 8 10 10 11 13 15 17 19 21 23 23 24 19 19 25
7 4 3 7 3 2 5 14 11 15 14 13 11 9 11 11 11 10 10 10 8 7 6 7 8 9 11 14 17 18 18 17 16 17 17 20 29 30
8 8 10 11 11 9 10 9 15 12 9 8 11 11 12 12 11 9 9 7 4 4 5 7 7 11 13 13 13 10 10 15 14 17 21 26 28 32
11 12 13 12 13 11 5 7 12 14 13 15 15 14 14 13 11 9 7 5 2 2 2 6 9 11 10 10 6 16 15 18 17 20 25 27 29 32
14 15 15 15 16 17 14 14 15 17 17 15 14 11 10 9 8 7 6 3 2 2 5 8 12 15 14 17 19 19 19 19 23 25 26 26 25 27
16 17 18 18 18 18 17 17 15 14 12 10 9 8 7 7 6 5 2 2 3 6 9 11 15 17 20 24 25 24 24 24 26 28 27 32 32 29
17 18 18 18 18 17 14 13 12 9 7 6 5 2 3 4 3 4 5 5 7 9 12 13 15 18 21 23 26 28 31 31 28 29 33 33 32 29
16 17 16 14 12 11 9 6 4 3 2 1 2 2 4 5 6 8 9 11 13 14 14 16 17 20 22 25 26 30 28 32 32 33 35 34 32 32
14 13 10 9 7 4 2 1 2 2 3 4 5 6 7 9 11 13 15 17 18 19 19 19 21 24 25 27 29 30 29 31 32 32 33 35 33 32
9 7 5 3 2 2 4 6 6 6 8 9 10 11 12 14 16 18 20 21 22 22 22 22 25 28 29 30 30 29 32 32 33 32 31 33 35 30
3 1 3 1 4 9 10 9 9 11 13 13 15 16 17 19 20 22 23 23 24 24 23 23 27 27 28 33 36 30 29 36 34 34 30 30 35 35
3 5 7 9 10 10 12 13 13 15 16 17 19 20 21 22 23 24 23 24 25 26 28 27 27 26 27 30 33 37 31 30 29 32 32 32 34 34
6 7 9 10 12 13 14 16 17 18 19 19 20 19 22 23 23 24 25 26 27 27 28 27 25 24 27 29 33 37 32 22 26 31 33 35 37 36
7 8 10 11 13 14 16 17 18 19 19 20 21 23 26 23 23 24 24 24 24 24 26 25 22 23 25 27 31 30 31 30 26 29 30 30 30 31
8 9 10 12 13 16 18 20 20 21 20 20 20 21 23 21 20 20 19 18 19 21 23 25 25 25 24 22 24 30 32 33 34 34 32 31 32 32
Wind_Direction
248 247 248 249 249 251 252 252 251 247 253 238 239 256 253 256 231 230 224 220 223 238 244 254 252 256 257 260 267 272 276 275 274 271 278 281 277 272
253 248 247 248 248 246 249 250 247 250 247 256 257 256 253 246 234 229 230 220 239 257 254 255 251 253 259 265 269 273 275 277 274 274 277 277 275 278
255 251 246 245 249 247 242 243 245 250 253 244 251 260 240 240 235 227 232 246 250 251 249 249 252 257 264 270 274 276 274 273 273 272 276 276 277 276
247 249 245 243 250 245 242 236 246 233 233 243 252 241 231 230 237 233 235 242 245 247 253 255 258 262 265 268 270 271 272 277 276 272 269 272 274 273
242 246 243 241 243 247 234 235 236 232 232 241 251 241 225 227 228 227 229 234 244 248 251 257 260 260 261 262 263 266 266 267 271 274 274 276 276 279
247 244 241 242 245 242 234 242 238 237 238 231 233 239 235 222 220 222 223 235 243 249 255 258 257 260 263 266 268 271 273 275 276 277 278 278 280 283
222 239 242 235 241 234 231 235 231 237 234 217 238 227 210 203 218 224 228 232 241 250 253 254 257 262 265 265 267 270 271 275 277 279 282 285 285 282
229 224 214 233 242 224 238 230 250 261 215 218 205 192 202 217 224 221 223 230 238 244 243 249 258 260 263 270 270 275 280 279 280 282 281 282 282 281
158 183 236 218 231 218 221 230 217 221 221 210 239 220 210 203 204 211 215 218 223 236 243 251 267 271 273 276 278 283 285 284 282 280 279 275 281 291
113 104 116 133 118 151 182 165 186 173 174 173 181 201 202 198 187 194 196 200 214 233 256 275 282 286 289 293 292 290 289 288 287 288 280 275 291 294
93 96 108 111 107 114 135 163 159 154 151 161 173 163 159 156 159 165 170 179 207 258 282 293 299 302 302 299 292 297 306 306 303 296 288 290 295 294
108 106 104 103 106 99 114 132 144 138 142 141 138 138 137 142 150 158 167 176 203 273 265 298 311 315 317 305 283 310 308 308 308 306 303 301 298 294
115 109 108 104 103 100 103 114 120 118 121 124 127 135 141 147 153 161 169 175 217 280 312 317 315 316 308 301 304 306 305 304 306 303 304 305 303 298
112 114 111 109 105 104 107 110 112 118 124 131 137 143 156 166 169 169 193 251 301 319 320 320 316 312 307 305 306 308 306 307 309 309 310 308 304 298
109 110 111 112 114 115 115 117 120 126 134 145 150 161 173 180 202 245 260 274 291 301 309 314 316 313 311 306 306 309 311 314 313 313 311 306 304 301
113 116 114 113 109 111 113 111 121 137 151 204 274 261 242 254 266 275 281 287 289 290 297 307 313 315 314 310 304 306 309 306 311 312 310 307 307 305
115 112 109 110 109 106 95 28 339 311 300 294 287 281 282 285 288 289 289 290 290 292 295 304 310 311 312 311 304 306 306 305 313 315 309 306 305 306
117 103 98 106 72 356 323 321 310 291 281 281 285 287 289 288 286 287 290 291 291 295 298 299 300 306 308 308 307 310 310 313 313 309 309 309 308 310
112 54 335 271 287 296 295 291 288 287 290 290 287 287 287 288 289 290 290 290 290 290 291 297 301 305 306 302 306 307 310 316 313 311 314 314 310 315
303 294 289 292 292 292 294 295 294 292 291 291 292 292 291 289 287 287 289 290 291 292 293 296 299 302 298 299 302 303 313 313 314 312 316 314 312 316
289 291 294 301 305 307 307 307 306 304 300 297 293 292 296 292 294 299 297 295 294 294 295 297 302 298 299 300 298 306 315 321 315 314 317 313 315 315
303 307 310 312 312 312 311 309 308 306 305 302 301 299 306 300 297 294 293 292 292 292 295 298 301 297 300 304 304 309 315 319 320 317 314 315 309 296
313 317 318 320 323 323 318 315 314 312 311 308 305 301 302 301 300 299 302 302 302 300 300 301 303 305 307 307 309 313 317 319 324 324 317 326 322 318